Regional Weather Roundup
Issued by NWS

Home | Current Version | Previous Version | Graphics & Text | Print | Product List | Glossary On
Versions: 1 2 3 4 5 6 7 8 9 10 11 12 13 14 15 16 17 18 19 20 21 22 23 24 25 26 27 28 29 30 31 32 33 34 35 36 37 38 39 40 41 42 43 44 45 46 47 48 49 50
000
ASUS43 KOAX 021710
RWRNE

WEATHER ROUNDUP FOR NEBRASKA
NATIONAL WEATHER SERVICE OMAHA NE
1200 PM CDT TUE SEP 02 2014

NOTES: SATELLITE DATA IS BEING USED TO AUGMENT CLOUD COVER ABOVE
       12000 FEET.
       "FAIR" INDICATES FEW OR NO CLOUDS BELOW 12,000 FEET WITH NO
       SIGNIFICANT WEATHER AND/OR OBSTRUCTIONS TO VISIBILITY.

  * THESE STATIONS DO NOT REPORT WEATHER SUCH AS RAIN...SNOW OR FOG.

NEZ001>004-019>022-054>056-021800-
NEBRASKA PANHANDLE

CITY           SKY/WX    TMP DP  RH WIND       PRES   REMARKS
SCOTTSBLUFF    SUNNY     74  51  44 SE6       30.02F
ALLIANCE       SUNNY     73  46  38 S18       30.03F
CHADRON        SUNNY     76  47  35 SW12      29.95F
KIMBALL        SUNNY     72  47  40 S6        30.07F
SIDNEY         SUNNY     74  51  44 S14       30.07F
$$

NEZ057>060-069>072-079>082-021800-
SOUTHWEST NEBRASKA

CITY           SKY/WX    TMP DP  RH WIND       PRES   REMARKS
NORTH PLATTE   SUNNY     71  59  65 SW9       30.05F
IMPERIAL       MOSUNNY   69  59  70 S7        30.07F
LEXINGTON      SUNNY     73  61  67 SW5       30.05F
MCCOOK         SUNNY     76  60  57 SW7       30.05F
OGALLALA       SUNNY     69  57  66 S9        30.05F
$$

NEZ005>010-023>029-035>040-094-021800-
NORTH CENTRAL NEBRASKA

CITY           SKY/WX    TMP DP  RH WIND       PRES   REMARKS
VALENTINE      SUNNY     74  52  46 SW7       29.99F
AINSWORTH      SUNNY     72  50  45 SW9       30.01S
BROKEN BOW     SUNNY     73  55  53 S9        30.03F
O`NEILL        SUNNY     73  54  51 SW5       30.00F
ORD            SUNNY     70  56  61 SW10      30.01F
THEDFORD       SUNNY     74  50  42 SW13G18   30.03F
$$

NEZ041-046>049-061>064-073>077-083>087-021800-
SOUTH CENTRAL NEBRASKA

CITY           SKY/WX    TMP DP  RH WIND       PRES   REMARKS
GRAND ISLAND   SUNNY     74  54  49 W7        30.03F
AURORA         SUNNY     71  55  56 NW6       30.03S
HASTINGS       SUNNY     72  56  57 W6        30.03F
HEBRON         SUNNY     74  54  50 CALM      30.03S
HOLDREGE       SUNNY     71  59  65 CALM      30.04F
KEARNEY *      SUNNY     72  57  60 SW8       30.05S
YORK           SUNNY     72 N/A N/A W6        30.03S
$$

NEZ011>018-030>034-042>045-021800-
NORTHEAST NEBRASKA

CITY           SKY/WX    TMP DP  RH WIND       PRES   REMARKS
NORFOLK        SUNNY     71  57  61 S6        30.00F
ALBION         SUNNY     69  57  65 S8        30.02S
BLAIR          SUNNY     70  59  67 W5        30.01S
FREMONT        SUNNY     72  58  60 CALM      30.01F
TEKAMAH        SUNNY     72  61  68 SW5       29.99F
WAYNE          SUNNY     72  60  66 SW6       29.99S
$$

NEZ050>053-065>068-078-088>093-021800-
SOUTHEAST NEBRASKA

CITY           SKY/WX    TMP DP  RH WIND       PRES   REMARKS
LINCOLN        SUNNY     75  56  51 N5        30.02F
OMAHA EPPLEY   MOSUNNY   73  58  59 VRB3      30.00F
BEATRICE       SUNNY     75  58  54 NW7       30.02R
FALLS CITY     SUNNY     79  59  50 NW5       30.00R
NEBRASKA CITY  SUNNY     73  58  58 NE7       30.00S
PLATTSMOUTH    SUNNY     73  57  56 NW7       30.00F
$$

NEZ044-045-051>053-067-021800-
OMAHA AREA

CITY           SKY/WX    TMP DP  RH WIND       PRES   REMARKS
OMAHA EPPLEY   MOSUNNY   73  58  59 VRB3      30.00F
BLAIR          SUNNY     70  59  67 W5        30.01S
FREMONT        SUNNY     72  58  60 CALM      30.01F
MILLARD        SUNNY     72  58  62 NW5       30.00F
OFFUTT AFB     SUNNY     74  61  63 W5        30.00S
PLATTSMOUTH    SUNNY     73  57  56 NW7       30.00F
WAHOO          FAIR      71  54  56 CALM      30.01S
$$


USA.gov is the U.S. government's official web portal to all federal, state and local government web resources and services.